Big Lake, AK

5:15 AM AKDT on September 29, 2016 (GMT -0800)
Wasilla

Weather History for PAWS - October, 2013

Change the Weather History Date:

Saturday, October 19, 2013

  Actual Average Record
Temperature  
Mean Temperature 46 °F -  
Max Temperature 51 °F 40 °F 61 °F (1957)
Min Temperature 42 °F 26 °F 7 °F (1959)
Degree Days  
Heating Degree Days 18    
Moisture  
Dew Point 32 °F    
Average Humidity 55    
Maximum Humidity 76    
Minimum Humidity 41    
Precipitation  
Precipitation 0.01 in - - ()
Sea Level Pressure  
Sea Level Pressure 29.49 in    
Wind  
Wind Speed 12 mph (East)    
Max Wind Speed 20 mph    
Max Gust Speed 36 mph    
Visibility 10 miles    
Events      
Averages and records for this station are not official NWS values.
T = Trace of Precipitation, MM = Missing Value Source: NWS Daily Summary

Daily Weather History Graph

Daily Weather History Graph

Search for Another Location

Airport or City:

Trip Planner

Search our weather history database for the weather conditions in past years. The results will help you decide how hot, cold, wet, or windy it might be!

Date:

Astronomy

Oct. 19, 2013 Rise Set
Actual Time 8:53 AM AKDT 6:31 PM AKDT
Civil Twilight 8:08 AM AKDT 7:16 PM AKDT
Nautical Twilight 7:17 AM AKDT 8:07 PM AKDT
Astronomical Twilight 6:26 AM AKDT 8:57 PM AKDT
Moon 6:40 PM AKDT (10/19) 10:02 AM AKDT (10/19)
Length of Visible Light 11h 08m
Length of Day
9h 38m
Full, 99% of the Moon is Illuminated
Oct 19
Full
Oct 26
Last Quarter
Nov 3
New
Nov 9
First Quarter
Nov 17
Full

Hourly Weather History & Observations

Time (AKDT) Temp. Windchill Dew Point Humidity Pressure Visibility Wind Dir Wind Speed Gust Speed Precip Events Conditions
12:16 AM - - - N/A% 29.60 in 10.0 mi East 17.3 mph 27.6 mph N/A   Scattered Clouds
12:36 AM - - - N/A% 29.59 in 10.0 mi East 17.3 mph 27.6 mph N/A   Partly Cloudy
12:56 AM - - - N/A% 29.57 in 10.0 mi East 18.4 mph 31.1 mph N/A   Scattered Clouds
1:16 AM 50.0 °F - 28.4 °F 43% 29.57 in 10.0 mi East 17.3 mph 29.9 mph N/A   Mostly Cloudy
1:36 AM 50.0 °F - 28.4 °F 43% 29.55 in 10.0 mi East 15.0 mph 26.5 mph N/A   Overcast
1:56 AM - - - N/A% 29.54 in 10.0 mi East 18.4 mph 31.1 mph N/A   Overcast
2:16 AM - - - N/A% 29.53 in 10.0 mi East 17.3 mph 28.8 mph N/A   Overcast
2:36 AM 51.8 °F - 28.4 °F 41% 29.53 in 10.0 mi East 17.3 mph 27.6 mph N/A   Overcast
2:56 AM - - - N/A% 29.50 in 10.0 mi East 13.8 mph 29.9 mph N/A   Overcast
3:16 AM 50.0 °F - 28.4 °F 43% 29.49 in 10.0 mi East 16.1 mph 25.3 mph N/A   Overcast
3:36 AM 50.0 °F - 28.4 °F 43% 29.48 in 10.0 mi East 15.0 mph 35.7 mph N/A   Overcast
3:56 AM 50.0 °F - 30.2 °F 47% 29.47 in 10.0 mi East 16.1 mph 28.8 mph N/A   Overcast
4:16 AM - - - N/A% 29.45 in 10.0 mi East 13.8 mph 28.8 mph N/A   Overcast
4:36 AM - - - N/A% 29.43 in 10.0 mi East 15.0 mph 34.5 mph N/A   Overcast
4:56 AM - - - N/A% 29.43 in 10.0 mi East 15.0 mph 27.6 mph N/A   Overcast
5:16 AM - - - N/A% 29.41 in 10.0 mi East 17.3 mph 31.1 mph N/A   Overcast
5:36 AM - - - N/A% 29.39 in 10.0 mi East 15.0 mph 28.8 mph N/A   Mostly Cloudy
5:56 AM - - - N/A% 29.37 in 10.0 mi ENE 16.1 mph 31.1 mph N/A   Overcast
6:16 AM - - - N/A% 29.36 in 10.0 mi ENE 19.6 mph 26.5 mph N/A   Overcast
6:36 AM 48.2 °F - 32.0 °F 54% 29.35 in 10.0 mi East 12.7 mph 24.2 mph N/A   Overcast
6:56 AM 50.0 °F - 32.0 °F 50% 29.35 in 10.0 mi East 15.0 mph 23.0 mph N/A   Mostly Cloudy
7:16 AM - - - N/A% 29.34 in 10.0 mi East 10.4 mph 20.7 mph N/A   Overcast
7:36 AM 50.0 °F - 33.8 °F 54% 29.34 in 10.0 mi East 13.8 mph 26.5 mph N/A   Overcast
7:56 AM 50.0 °F - 33.8 °F 54% 29.34 in 10.0 mi SE 10.4 mph 19.6 mph N/A   Overcast
8:16 AM 48.2 °F - 33.8 °F 58% 29.35 in 10.0 mi SE 5.8 mph - N/A   Overcast
8:36 AM 48.2 °F - 33.8 °F 58% 29.35 in 10.0 mi ESE 6.9 mph 17.3 mph N/A   Overcast
8:56 AM 48.2 °F - 33.8 °F 58% 29.36 in 10.0 mi East 4.6 mph - N/A   Overcast
9:16 AM 48.2 °F - 33.8 °F 58% 29.36 in 10.0 mi ENE 6.9 mph - N/A   Overcast
9:36 AM 48.2 °F - 33.8 °F 58% 29.36 in 10.0 mi East 3.5 mph - N/A   Overcast
9:56 AM 46.4 °F - 35.6 °F 66% 29.38 in 10.0 mi Calm Calm - N/A   Overcast
10:16 AM 44.6 °F - 35.6 °F 71% 29.38 in 10.0 mi Calm Calm - N/A   Overcast
10:36 AM 44.6 °F 40.7 °F 35.6 °F 71% 29.43 in 10.0 mi WSW 6.9 mph 16.1 mph N/A   Overcast
10:56 AM 42.8 °F 39.3 °F 33.8 °F 70% 29.43 in 10.0 mi West 5.8 mph - N/A   Overcast
11:16 AM 42.8 °F 38.6 °F 33.8 °F 70% 29.45 in 10.0 mi West 6.9 mph - N/A   Overcast
11:36 AM 42.8 °F 38.0 °F 35.6 °F 76% 29.45 in 10.0 mi NW 8.1 mph - N/A   Overcast
11:56 AM 44.6 °F 40.7 °F 37.4 °F 76% 29.44 in 10.0 mi NNW 6.9 mph - N/A   Partly Cloudy
12:16 PM 46.4 °F 44.3 °F 35.6 °F 66% 29.45 in 10.0 mi NNE 4.6 mph - N/A   Clear
12:36 PM 44.6 °F - 35.6 °F 71% 29.46 in 10.0 mi Calm Calm - N/A   Clear
12:56 PM 46.4 °F - 37.4 °F 71% 29.47 in 10.0 mi Calm Calm - N/A   Partly Cloudy
1:16 PM 46.4 °F - 35.6 °F 66% 29.48 in 10.0 mi Calm Calm - N/A   Mostly Cloudy
1:36 PM 46.4 °F 45.2 °F 35.6 °F 66% 29.49 in 10.0 mi SE 3.5 mph - N/A   Overcast
1:56 PM 48.2 °F - 35.6 °F 62% 29.49 in 10.0 mi ESE 3.5 mph - 0.01 in   Mostly Cloudy
2:16 PM 48.2 °F - 35.6 °F 62% 29.50 in 10.0 mi ENE 6.9 mph - N/A   Partly Cloudy
2:36 PM 48.2 °F - 35.6 °F 62% 29.50 in 10.0 mi ENE 8.1 mph - N/A   Scattered Clouds
2:56 PM 48.2 °F - 33.8 °F 58% 29.50 in 10.0 mi ESE 5.8 mph - N/A   Mostly Cloudy
3:16 PM 50.0 °F - 32.0 °F 50% 29.50 in 10.0 mi East 5.8 mph - N/A   Overcast
3:36 PM 50.0 °F - 30.2 °F 47% 29.50 in 10.0 mi East 5.8 mph - N/A   Overcast
3:56 PM 50.0 °F - 30.2 °F 47% 29.51 in 10.0 mi East 4.6 mph - N/A   Overcast
4:16 PM 50.0 °F - 30.2 °F 47% 29.51 in 10.0 mi East 5.8 mph - N/A   Overcast
4:36 PM 50.0 °F - 30.2 °F 47% 29.52 in 10.0 mi East 6.9 mph - N/A   Overcast
4:56 PM 50.0 °F - 30.2 °F 47% 29.52 in 10.0 mi East 9.2 mph - N/A   Overcast
5:16 PM 50.0 °F - 30.2 °F 47% 29.52 in 10.0 mi East 5.8 mph - N/A   Overcast
5:36 PM 48.2 °F - 30.2 °F 50% 29.52 in 10.0 mi East 6.9 mph - N/A   Overcast
5:56 PM 48.2 °F - 30.2 °F 50% 29.53 in 10.0 mi East 6.9 mph - N/A   Mostly Cloudy
6:16 PM 48.2 °F - 32.0 °F 54% 29.53 in 10.0 mi East 10.4 mph - N/A   Mostly Cloudy
6:36 PM 46.4 °F 42.4 °F 32.0 °F 57% 29.54 in 10.0 mi East 8.1 mph - N/A   Overcast
6:56 PM 46.4 °F 42.9 °F 32.0 °F 57% 29.55 in 10.0 mi East 6.9 mph - N/A   Overcast
7:16 PM 48.2 °F - 30.2 °F 50% 29.55 in 10.0 mi East 8.1 mph - N/A   Overcast
7:36 PM 48.2 °F - 30.2 °F 50% 29.56 in 10.0 mi ESE 8.1 mph - N/A   Overcast
7:56 PM 48.2 °F - 30.2 °F 50% 29.56 in 10.0 mi East 8.1 mph - N/A   Overcast
8:16 PM 48.2 °F - 30.2 °F 50% 29.57 in 10.0 mi East 6.9 mph - N/A   Overcast
8:36 PM 48.2 °F - 30.2 °F 50% 29.58 in 10.0 mi ESE 6.9 mph - N/A   Overcast
8:56 PM 48.2 °F - 30.2 °F 50% 29.59 in 10.0 mi East 8.1 mph - N/A   Overcast
9:16 PM 48.2 °F - 30.2 °F 50% 29.60 in 10.0 mi East 9.2 mph - N/A   Overcast
9:36 PM 48.2 °F - 30.2 °F 50% 29.60 in 10.0 mi East 9.2 mph 17.3 mph N/A   Overcast
9:56 PM 48.2 °F - 30.2 °F 50% 29.61 in 10.0 mi East 6.9 mph - N/A   Overcast
10:16 PM 48.2 °F - 30.2 °F 50% 29.61 in 10.0 mi East 6.9 mph 16.1 mph N/A   Overcast
10:36 PM 48.2 °F - 30.2 °F 50% 29.62 in 10.0 mi East 9.2 mph 17.3 mph N/A   Overcast
10:56 PM 48.2 °F - 30.2 °F 50% 29.62 in 10.0 mi East 8.1 mph - N/A   Overcast
11:16 PM 48.2 °F - 30.2 °F 50% 29.63 in 10.0 mi East 5.8 mph - N/A   Overcast
11:36 PM 48.2 °F - 30.2 °F 50% 29.64 in 10.0 mi East 6.9 mph - N/A   Overcast
11:56 PM - - - N/A% 29.64 in 10.0 mi ENE 9.2 mph - N/A   Overcast